DECAYED

COSMOS 2251 DEB, 34313 (Decayed)

Orbit data source: Space-Track

COSMOS 2251 DEB, 34313 was space debris in LEO originally from a launch on Wed, 16 Jun 1993 UTC launched from the Plesetsk Missile And Space Complex (PKMTR). The debris from Iridium 33, an American commercial communications satellite, has been tracked extensively since its accidental collision with the defunct Russian satellite Cosmos 2251 in 2009. This event, occurring at high speed in low Earth orbit (LEO), generated thousands of pieces of space debris, significantly increasing the risk of further collisions. The Iridium 33 debris cloud has impacted space traffic management and orbital debris mitigation strategies, making it a subject of ongoing study in space situational awareness.

Not visible in the next 10 days
Identifier
34313, 1993-036NK
Orbit
Decayed
Country
Flag of CISCIS
Related business
Manufacturer
Unknown
Mission
Decayed spacecraft
Bus & Motor
Unknown
Mass
Unknown
Launch date (UTC)
1993-06-16 (33 years ago)
Launch vehicle
Unknown
Launch site
Plesetsk Missile And Space Complex (PKMTR)
Object type
Payload
Rocket body
Debris
Shape & HBR
Unknown shape, 0.1 m
Radar Cross Section
Medium (>0.1 m² and <1 m²)

Expand to show TLE details & history
Last TLE update: 4 months ago

TLE from 4 months ago
0 COSMOS 2251 DEB
1 34313U 93036NK  26092.01389171  .03171162  91498-2  11227-1 0  9992
2 34313  73.9459  66.8189 0019600 196.5317 163.5281 15.90874205907608
Epoch: 2026-04-02T00:20Z
TLE epoch observation values (Epoch: 2026-04-02T00:20:00.243Z)
Latitude
0.00001°
Longitude
-128.55057°
Altitude
315.182 km
Speed
7.712 km/s
True Right ascension
04h 27m 16s
True Declination
0° 00' 00"
Sunlit
Object was in daylight at epoch
Visualization orbit readout
Latitude
Unknown
Longitude
Unknown
Altitude
Unknown
Speed
Unknown
Apparent Right ascension
Unknown
Apparent Declination
Unknown
Sunlit
N/A
Visualization observer readout
Local Sidereal Time
20:29:52
Azimuth
Unknown
Elevation
Unknown
Doppler factor
Unknown
Orbital elements
Apogee altitude
310.383 km
Perigee altitude
284.215 km
Semi-major axis
6,675.436 km
Eccentricity
0.00196
Inclination
73.9459°
RAAN
66.8189°
Arg. of periapsis
196.5317°
True anomaly
163.59163°
Mean anomaly
163.5281°
Eccentric anomaly
163.55988°
Mean motion
3.97946 °/min
Orbital period
90.46 mins
BSTAR
0.011227
Loading maneuver chart data...
Computing Atmospheric mass density...

Documentation

Showing up to 5 results
|